Location: ?????????
(54.7630°N, 39.4991°E)
Time: 07:12:42
(UTC+00:00)

Cosmos 676 Rocket - Pass Details

Date: 14 April 2026
Orbit: 750 x 779 km, 74.0° (Epoch: 13 May)

Event Time Altitude Azimuth Distance (km) Brightness Sun altitude
Rises 21:12:12 0° 332° (NNW) 3,273 8.3 -25.5°
Reaches altitude 10° 21:14:36 10° 335° (NNW) 2,339 7.4 -25.6°
Maximum altitude 21:19:56 75° 60° (ENE) 806 4.0 -25.6°
Enters shadow 21:20:32 66° 113° (ESE) 844 4.0 -25.6°
